Location: Nairn
(57.5833°N, 3.8667°W)
Time: 17:09:38
(UTC+00:00)

NOSS 5 (C) - Pass Details

Date: 07 August 2020
Orbit: 377 x 1732 km, 63.3° (Epoch: 23 September)

Event Time Altitude Azimuth Distance (km) Brightness Sun altitude
Exits shadow 00:46:34 37° 197° (SSW) 726 4.9 -15.9°
Maximum altitude 00:47:38 55° 140° (SE) 529 4.4 -15.9°
Drops below altitude 10° 00:50:39 10° 61° (ENE) 1,443 7.4 -15.8°
Sets 00:52:33 0° 57° (ENE) 2,266 8.6 -15.8°
